Wind_Speed
18 22 24 23 22 21 22 23 24 23 22 21 19 16 14 13 11 10 10 9 9 8 7 7 6 6 6 7 7 7 7 8 9 9 10 11 12 13 14 16 17 18 18 19 20 21 22 23 23 22 21 20 19 19 20 21 21 20 20 19 20 24 27 27 28 30 30 29 30 30 31 31 31 31 32 32 31 31 31 30 30 30 30 32 33
21 23 22 21 20 21 21 23 24 23 22 20 18 16 14 12 10 10 9 9 8 7 6 5 5 5 6 7 7 8 8 8 9 9 10 11 12 13 15 16 17 18 19 20 21 22 23 23 23 23 23 22 20 19 19 20 20 20 21 22 25 28 29 28 29 31 30 29 30 31 31 31 31 31 32 33 32 32 32 32 31 31 31 32 33
22 22 20 19 19 20 21 22 23 23 21 19 18 16 14 12 9 9 9 9 7 6 5 4 3 4 6 7 7 8 8 9 9 9 10 11 12 14 16 17 18 18 19 20 21 22 23 23 23 24 24 24 22 21 20 20 21 21 21 23 26 28 30 30 31 31 30 29 30 31 32 31 31 30 31 32 33 33 33 33 33 33 33 33 34
22 20 19 19 19 20 21 22 23 23 22 19 17 16 14 11 8 9 9 9 7 5 4 2 2 3 5 7 8 8 9 9 10 10 11 12 13 15 16 17 18 18 19 20 21 21 22 22 22 23 24 25 25 24 24 23 23 22 22 24 27 30 32 32 31 30 29 29 31 33 32 31 30 30 30 30 32 33 33 33 33 33 34 34 35
20 19 19 19 20 20 21 22 22 23 21 18 16 14 13 10 8 9 9 9 8 6 3 2 1 3 5 7 8 9 10 10 11 11 12 13 14 15 15 16 17 17 19 20 20 21 21 21 21 23 24 25 25 26 26 26 26 26 26 27 30 33 34 33 32 30 29 29 31 33 32 30 29 30 30 30 30 31 32 33 34 33 33 33 35
18 19 19 18 19 19 19 20 20 20 20 18 15 14 12 9 8 9 9 8 7 5 4 2 2 3 5 7 8 9 10 11 12 13 13 14 14 15 15 16 16 17 19 20 21 22 22 22 22 23 24 26 26 26 26 27 29 30 30 31 33 34 35 35 33 31 30 30 33 33 30 28 28 29 30 31 31 32 32 33 34 33 32 32 33
18 18 18 17 17 17 18 18 18 17 17 16 15 14 12 10 8 9 8 7 6 5 4 4 3 4 6 7 9 10 11 12 13 14 14 15 15 16 16 16 17 18 19 20 22 23 23 22 22 23 26 28 28 28 28 29 31 32 33 34 34 35 35 36 35 33 32 32 33 32 28 27 28 30 30 31 32 34 34 34 34 33 33 32 32
18 18 17 17 17 17 16 16 16 15 15 14 14 13 11 10 9 10 9 8 7 6 5 5 5 5 7 9 10 11 13 13 14 15 15 16 16 16 16 16 17 18 19 21 22 24 24 24 24 25 27 28 29 29 30 31 32 33 34 35 35 36 36 36 36 36 35 34 33 31 28 28 30 31 32 32 33 35 36 36 35 34 33 33 32
17 17 17 17 17 16 16 15 15 14 14 14 13 12 11 10 10 10 10 9 8 8 7 7 7 7 8 10 12 13 14 15 16 16 16 17 16 16 16 16 17 18 19 21 22 24 24 25 26 27 28 29 29 30 32 33 33 34 35 36 37 37 38 37 37 36 36 35 33 31 29 30 32 33 34 34 35 36 36 37 37 37 36 35 34
17 16 16 16 16 16 15 15 14 13 13 13 12 11 11 11 11 10 10 10 10 9 8 8 8 9 10 11 13 15 16 17 17 17 18 18 17 17 17 17 18 18 19 21 22 24 26 27 28 28 29 30 30 31 32 33 34 35 36 37 38 38 39 39 38 37 37 35 33 32 32 33 34 35 36 36 36 37 38 38 38 38 39 39 38
18 17 17 16 16 16 15 14 13 12 12 12 11 11 11 11 11 11 11 11 11 10 9 9 9 10 11 13 14 16 18 18 19 19 19 18 18 17 18 19 19 20 20 21 22 24 26 28 29 29 30 30 30 31 32 33 34 35 37 38 39 39 39 39 38 37 37 37 36 35 35 36 37 37 37 38 38 38 39 40 40 40 41 41 42
20 19 19 18 17 16 14 14 14 12 11 10 11 11 11 11 11 12 12 12 12 12 11 10 10 11 12 14 16 17 19 20 20 19 19 19 18 19 19 19 20 21 21 22 23 25 27 29 30 31 30 30 30 30 31 32 33 35 37 38 38 39 39 38 37 36 37 38 38 38 38 38 39 39 39 39 40 40 40 41 41 42 42 42 42
23 22 22 21 20 18 16 16 16 14 12 11 11 11 10 11 12 13 13 14 14 14 13 12 12 13 14 16 17 18 20 21 21 20 19 19 19 20 20 21 21 22 22 23 24 26 27 29 31 32 32 32 32 32 33 33 34 35 36 37 38 38 38 36 34 34 37 39 39 39 39 39 40 40 39 40 40 41 41 41 42 42 43 43 43
26 25 25 25 24 22 20 19 18 17 16 15 14 13 13 12 13 13 14 15 15 15 15 14 14 15 16 17 18 20 21 21 21 20 20 20 20 20 21 22 23 23 24 25 26 27 28 30 32 33 34 33 34 35 35 35 36 36 37 39 39 40 38 34 32 34 38 40 41 40 39 39 39 39 39 40 40 41 41 41 42 42 42 43 44
30 29 29 29 27 25 23 22 21 21 20 19 19 18 18 17 16 15 14 15 15 16 16 16 16 17 18 19 20 20 22 22 21 20 21 21 21 21 22 24 24 24 26 27 27 28 29 31 32 34 34 34 35 36 36 37 37 38 39 40 41 41 39 35 34 38 41 41 41 40 39 39 39 40 40 41 41 42 42 41 41 42 42 42 43
35 34 33 31 29 27 26 25 24 24 24 24 23 22 22 22 21 19 18 17 17 17 17 17 18 20 20 21 22 22 22 23 21 21 22 22 22 23 24 25 25 26 27 28 28 29 30 31 33 34 34 35 36 37 38 38 39 39 40 41 41 41 39 37 39 42 43 42 42 42 41 41 41 42 42 43 43 43 43 43 43 43 43 43 44
38 38 37 35 32 30 29 28 28 28 28 27 25 24 25 25 25 24 23 21 20 18 19 19 21 22 23 24 24 23 23 23 21 21 22 23 24 24 26 27 28 28 29 29 30 30 31 32 34 35 35 36 37 38 39 40 40 41 41 41 41 41 41 41 42 44 44 43 44 44 43 43 43 44 44 45 45 45 46 45 45 46 46 46 46
39 40 39 37 35 33 33 32 31 30 30 28 26 25 26 26 26 26 26 25 24 22 21 21 23 25 26 26 26 25 25 24 22 21 23 24 26 26 28 29 29 30 30 31 31 32 33 34 35 36 36 37 38 39 40 41 41 42 42 42 42 42 42 43 44 45 44 44 46 46 44 44 43 44 45 46 47 47 47 47 47 47 48 48 48
39 41 40 38 37 35 34 33 32 32 31 29 28 27 27 26 25 26 26 27 27 26 24 23 25 26 28 29 29 27 26 25 23 23 24 25 27 28 30 31 32 32 33 33 34 34 34 35 36 37 38 38 38 40 41 42 42 43 43 44 44 44 44 44 46 45 44 45 47 47 45 44 44 44 45 46 47 48 48 48 48 48 49 49 50
40 42 41 40 39 36 35 34 33 33 32 30 30 30 30 27 25 26 27 28 28 28 27 27 28 29 30 31 30 29 28 26 24 24 25 26 28 30 32 33 34 34 35 36 36 36 36 37 38 38 39 39 40 40 41 43 44 44 45 45 45 45 45 46 46 46 46 47 48 47 45 45 45 44 45 46 47 47 48 48 48 49 49 50 51
42 42 42 41 40 37 36 36 35 34 33 33 33 32 31 29 28 28 28 29 29 29 29 30 32 33 33 34 33 31 29 27 26 26 26 27 29 31 33 35 36 37 37 38 38 38 38 38 39 40 41 41 41 42 43 43 45 46 46 46 47 47 47 47 48 48 48 47 48 47 46 47 47 46 47 48 48 49 49 50 50 50 50 52 53
44 44 43 43 42 40 39 38 38 36 35 35 34 33 33 33 31 30 30 30 30 29 30 32 34 35 36 37 35 33 31 29 28 27 27 28 30 33 35 36 38 39 39 40 40 40 40 40 41 42 43 43 43 44 44 45 46 48 48 48 48 49 50 50 51 50 48 48 49 48 48 49 49 50 51 52 52 52 52 53 53 52 53 54 55
46 46 45 45 45 43 41 40 40 38 38 37 37 35 35 34 33 32 32 32 31 31 32 33 35 36 37 37 36 35 34 32 30 28 28 30 32 34 36 38 39 41 42 42 42 42 43 43 44 44 46 46 46 46 45 47 49 50 51 51 50 51 53 54 53 52 50 50 50 49 51 52 52 53 55 55 55 55 55 56 56 56 56 57 58
48 49 48 48 47 45 42 41 41 41 40 40 39 38 36 35 35 35 34 34 34 34 34 35 36 36 37 37 36 35 35 34 33 31 31 33 36 37 38 40 41 43 43 44 44 45 45 46 46 47 49 49 49 48 48 49 51 54 54 51 50 55 57 57 57 55 54 53 52 52 54 54 55 57 58 58 57 57 57 58 58 58 59 59 60
51 51 52 51 50 47 44 43 43 42 42 42 41 39 37 36 36 36 36 36 36 37 38 37 37 37 38 38 36 35 36 36 34 33 35 38 39 40 41 42 43 44 45 45 46 47 48 48 49 49 51 52 51 50 50 50 52 55 52 47 52 60 62 61 61 60 58 56 56 56 56 56 58 59 60 61 60 59 60 60 60 60 61 61 61
53 54 54 54 53 51 49 47 46 45 44 43 43 41 40 39 39 38 38 39 39 39 40 40 39 40 40 40 39 37 36 36 36 37 40 41 42 42 42 43 44 46 47 48 49 49 50 50 50 51 52 53 53 52 52 51 52 53 48 47 57 64 64 63 64 62 60 60 59 58 57 59 61 62 62 63 62 62 62 62 63 64 64 63 63
57 57 56 55 55 55 53 51 50 48 47 46 45 44 43 42 41 40 40 41 41 41 41 41 41 42 43 43 41 40 38 38 39 41 43 43 43 43 43 45 46 48 49 50 51 51 52 52 52 53 53 54 55 55 54 53 53 54 53 55 61 64 64 65 65 64 62 60 58 58 58 60 62 63 64 65 64 64 64 64 65 66 66 66 65
58 59 58 57 58 59 58 55 53 52 50 49 48 46 45 45 44 43 43 44 44 43 43 43 43 44 46 45 43 42 41 42 42 43 44 44 44 44 45 46 48 50 52 52 53 54 54 55 55 55 55 56 57 56 55 55 54 55 56 58 60 62 65 66 67 66 63 58 57 59 60 61 62 64 65 66 66 66 67 67 68 68 68 68 67
60 61 61 60 60 61 61 57 55 55 54 53 51 50 49 49 47 46 46 46 45 44 45 45 45 46 48 48 45 44 44 44 44 45 45 45 45 45 46 48 49 51 53 54 55 56 57 58 58 58 57 57 58 58 57 56 55 56 57 58 59 62 64 67 68 66 62 59 61 63 63 63 65 66 67 67 68 68 69 69 69 70 70 69 69
63 63 63 63 62 62 62 60 58 57 57 56 54 53 53 52 50 49 48 47 46 46 46 47 47 49 50 50 48 47 47 46 46 46 46 46 47 47 48 49 50 52 53 55 57 58 58 59 60 60 59 59 59 59 58 58 58 57 58 59 60 62 64 67 68 65 62 62 64 66 66 66 68 69 69 69 70 70 70 71 71 71 71 70 70
67 66 66 65 64 64 63 62 61 60 59 58 56 55 54 53 52 52 51 50 48 46 47 49 50 51 51 51 50 49 49 48 48 48 48 48 48 48 49 50 51 52 54 57 59 60 60 61 61 61 61 60 61 60 59 60 59 59 60 61 62 64 66 67 67 64 63 64 65 66 67 69 71 71 71 71 71 72 72 73 73 72 72 72 72
72 71 70 69 68 67 65 64 64 63 62 61 59 57 56 54 54 54 53 51 49 48 49 51 53 52 52 53 52 51 51 50 50 50 49 49 49 50 51 51 52 53 55 58 60 61 62 62 63 63 63 62 62 61 60 60 62 62 60 59 62 67 69 68 65 63 64 65 66 67 70 72 73 73 73 73 73 73 75 75 75 74 74 75 75
76 75 74 73 72 70 68 66 66 64 63 62 61 59 58 57 56 55 54 52 52 52 52 53 54 54 54 54 54 53 53 52 52 51 51 50 51 51 52 53 54 56 57 60 62 63 64 64 65 66 65 65 64 62 60 61 63 63 59 57 62 68 66 62 60 63 68 70 69 71 73 74 75 74 74 74 74 75 77 76 76 76 77 77 77
79 78 77 77 76 74 72 70 68 66 65 64 63 62 60 58 57 56 55 55 54 54 54 54 55 56 55 56 56 55 55 54 54 53 52 52 53 54 54 55 56 58 60 62 63 65 66 67 68 68 68 67 66 63 62 63 65 63 60 59 61 61 57 57 61 67 73 74 72 73 74 75 75 75 75 75 76 77 78 77 77 78 79 79 79
79 81 80 79 79 77 75 74 71 69 68 67 65 64 62 60 58 57 57 56 56 56 55 55 56 57 58 57 57 57 57 56 55 55 55 55 55 56 57 57 58 60 62 64 65 67 69 69 70 70 69 68 68 66 65 67 67 66 64 61 57 54 54 60 67 71 73 72 72 74 75 75 76 76 76 77 78 79 78 78 79 79 80 80 81
73 78 81 82 81 80 78 76 74 73 72 71 69 66 64 63 61 59 58 58 58 57 57 57 58 59 59 58 58 58 58 58 58 58 58 58 58 59 59 59 60 63 65 66 67 68 70 71 71 71 69 69 69 69 68 69 68 68 66 62 59 59 61 66 71 72 71 71 73 74 75 76 77 77 78 79 79 79 79 79 80 81 81 81 82
67 73 77 81 82 82 80 78 77 76 76 75 74 71 69 67 64 62 61 60 60 59 59 59 59 59 60 61 60 60 61 62 62 60 60 61 61 61 61 61 63 65 67 68 69 70 71 72 72 71 71 71 71 70 69 69 68 68 68 66 64 66 69 71 72 71 71 73 74 75 76 77 78 78 79 80 80 80 80 81 82 82 82 83 84
64 68 72 77 81 84 84 82 80 80 79 79 78 76 73 71 69 66 65 63 61 61 61 61 60 61 62 63 62 64 65 66 64 63 63 63 63 63 63 64 66 67 69 70 71 72 73 73 72 72 72 72 72 71 70 69 69 69 69 68 68 70 71 71 71 71 72 74 74 75 77 78 79 79 80 81 81 81 82 83 82 82 83 85 86
61 63 65 69 74 80 84 84 83 82 82 81 81 80 78 76 74 71 69 65 62 62 63 64 64 64 64 64 66 68 68 67 66 66 66 66 65 65 66 66 68 70 71 72 73 75 76 75 73 74 74 73 73 72 71 70 70 70 70 69 70 70 70 70 70 71 73 74 74 76 77 78 79 80 81 82 82 82 83 83 83 84 85 87 88
60 60 61 63 67 72 77 81 83 84 85 85 85 83 82 80 77 74 69 65 64 65 67 67 67 66 65 66 69 70 69 68 68 68 68 68 67 67 68 70 72 73 74 75 77 79 79 78 76 76 76 75 74 72 71 70 69 69 69 69 68 69 69 69 71 72 73 74 75 76 77 78 80 81 82 83 83 83 83 84 85 86 87 89 90
61 61 60 61 63 66 69 74 79 82 84 87 87 86 85 83 81 77 71 69 70 71 71 70 69 69 69 70 72 71 70 70 71 71 70 68 67 68 71 72 73 74 76 78 79 81 81 80 77 76 75 73 70 69 69 68 67 67 67 66 66 68 69 69 71 72 73 74 75 76 77 79 80 82 83 84 84 84 85 86 87 88 89 90 92
61 62 62 61 62 63 65 67 72 75 78 83 87 87 87 86 85 81 77 76 77 76 74 73 72 72 73 73 73 72 71 72 73 72 70 68 68 69 70 71 72 74 75 75 75 76 74 68 63 64 65 64 64 65 66 65 65 65 64 64 66 68 69 70 71 73 74 74 75 76 78 80 82 83 83 84 85 85 86 87 89 90 91 92 94
60 62 64 63 61 62 62 63 66 69 73 79 83 86 88 87 86 84 82 81 81 80 77 76 75 75 76 76 75 73 72 73 73 72 69 68 67 65 64 65 66 66 65 65 65 64 57 48 48 55 59 59 60 61 62 63 63 62 62 64 67 69 69 71 72 73 74 75 76 77 79 81 83 83 83 85 86 86 87 89 90 91 92 94 97
60 61 63 63 62 62 61 61 63 65 68 72 77 81 85 86 86 86 86 86 85 83 81 79 77 77 78 78 76 74 74 74 73 72 69 68 67 63 59 57 56 57 58 56 55 52 47 47 53 59 59 58 59 59 60 63 62 60 61 65 69 70 70 72 73 74 75 76 77 79 82 83 82 83 84 86 86 87 88 89 91 93 94 96 99
61 61 62 62 62 62 62 61 61 62 64 67 70 74 78 81 82 84 87 88 87 85 84 82 81 81 81 79 77 75 75 74 74 73 70 67 65 61 56 53 52 52 52 52 49 47 51 56 62 64 62 61 60 59 60 61 60 60 64 68 70 70 72 74 75 76 77 78 80 82 83 83 82 83 85 87 87 88 89 91 93 95 97 99 102
62 63 63 63 62 62 62 62 62 61 61 63 65 67 69 72 77 79 80 81 81 82 85 86 86 86 84 81 77 75 74 75 75 73 69 66 64 62 58 56 52 47 49 51 46 46 55 61 66 67 66 62 58 57 58 58 60 63 67 69 70 71 73 75 77 78 79 80 82 83 83 82 83 85 87 88 88 89 90 92 95 96 99 102 104
62 63 64 64 63 63 63 63 61 60 59 60 62 64 64 65 69 71 71 70 71 78 87 92 91 89 85 81 77 74 73 74 75 73 68 67 68 67 62 56 52 52 54 48 42 48 59 64 68 68 64 58 54 56 58 59 64 69 69 69 70 72 74 77 78 79 80 81 81 82 82 83 85 87 89 89 89 90 92 94 96 98 101 104 106
61 62 63 63 63 63 62 61 60 59 58 57 59 61 62 63 65 67 70 71 74 79 86 89 90 89 85 79 75 73 72 72 73 72 67 63 64 65 60 55 55 58 55 46 46 57 63 66 68 63 56 51 53 59 63 67 71 72 71 71 73 74 76 78 79 79 80 80 80 81 82 84 87 88 89 89 89 91 93 95 97 100 103 105 107
61 61 62 62 61 61 60 58 58 57 57 56 56 57 59 62 64 66 69 73 77 80 81 82 83 82 79 75 73 71 68 67 68 67 63 61 62 63 60 56 55 58 57 53 56 66 69 68 67 60 54 55 62 68 71 73 73 73 73 75 75 76 77 78 78 78 78 79 81 82 83 86 87 88 88 89 90 92 94 96 98 102 104 107 109
61 61 61 60 59 58 56 56 56 56 55 55 55 54 55 58 61 65 67 71 76 81 83 81 77 73 72 68 64 64 65 65 66 66 67 67 67 64 60 58 59 61 62 60 62 70 74 71 67 63 64 68 72 73 74 74 74 75 76 76 76 77 78 77 77 78 79 81 82 83 85 86 87 87 87 89 91 94 95 97 100 103 106 108 110
61 61 60 59 57 56 55 54 53 53 53 52 52 52 54 55 58 62 64 66 70 75 80 81 74 69 66 58 50 57 70 71 69 69 70 70 68 63 60 62 65 65 66 65 68 74 77 76 74 74 76 77 76 75 75 75 76 77 78 77 77 77 77 78 79 81 82 83 84 84 85 85 86 86 88 90 93 95 96 99 102 105 107 109 111
Wind_Direction
171 171 172 172 170 167 165 163 161 160 161 162 161 157 151 143 138 139 138 135 129 119 107 95 80 65 49 38 32 26 21 15 10 10 9 6 3 360 359 359 360 359 357 355 353 353 354 356 358 360 0 359 356 355 354 351 349 348 346 345 344 344 344 344 344 346 346 346 345 344 344 344 344 343 343 344 343 341 342 342 341 340 340 341 342
170 172 174 175 174 171 169 168 168 167 166 165 165 164 160 153 149 150 148 142 136 126 112 96 76 53 36 25 20 14 8 4 1 1 2 360 357 356 358 360 0 359 357 354 352 352 353 355 357 359 1 0 358 357 355 352 350 350 348 345 342 341 341 340 339 340 341 343 343 343 342 341 341 340 340 340 339 339 340 340 339 337 336 336 338
172 176 179 180 177 174 172 172 174 174 172 170 170 170 166 160 154 156 156 150 144 136 121 99 66 39 22 16 10 2 356 353 351 351 353 352 352 354 356 359 0 359 356 354 353 353 352 353 356 358 359 359 357 354 350 347 346 347 347 347 345 344 343 340 338 337 338 340 342 342 340 339 338 338 338 337 335 334 335 337 338 336 334 333 333
176 181 185 184 179 175 174 175 178 180 179 179 179 176 171 167 164 166 166 159 155 149 135 113 51 18 9 5 359 351 346 342 341 341 343 345 348 351 354 356 358 356 353 353 354 352 350 350 353 356 357 357 355 352 347 342 340 340 341 342 341 341 341 340 338 337 337 338 340 340 338 336 336 337 337 335 333 331 330 333 335 335 333 330 329
181 185 186 183 180 178 177 178 181 184 186 187 187 183 180 179 179 179 176 171 166 164 163 164 322 342 349 350 347 340 336 334 332 332 335 341 344 348 351 352 352 351 349 351 352 350 348 348 350 354 356 355 354 351 347 341 337 334 333 333 334 335 337 340 340 338 337 337 338 338 336 334 334 336 335 333 333 331 328 329 330 331 331 328 325
183 184 184 183 181 180 180 182 184 187 189 192 192 190 191 195 196 192 187 183 181 182 188 204 259 308 330 335 335 331 327 326 325 326 330 336 341 346 348 348 346 344 345 347 347 346 346 346 349 352 354 353 351 349 346 343 340 338 336 335 336 337 337 338 339 339 338 336 335 336 335 334 334 336 334 332 331 333 331 329 328 328 328 327 324
184 185 185 185 185 185 186 188 190 193 195 197 198 199 203 207 205 199 197 200 203 209 220 234 258 289 315 322 324 323 320 319 320 322 326 331 339 345 346 343 340 340 341 342 343 344 345 346 347 348 349 349 348 345 344 344 343 341 340 340 340 340 340 340 340 340 338 335 334 334 335 335 336 337 336 334 332 333 334 333 330 329 328 326 323
188 188 188 188 189 190 191 193 196 198 200 203 208 212 218 217 208 202 203 210 221 233 243 253 268 288 306 315 317 315 314 315 316 320 324 329 338 343 343 340 337 336 336 337 339 342 343 345 344 344 344 345 344 343 343 343 343 342 341 341 340 341 343 343 343 342 340 336 334 333 334 336 337 338 338 338 337 335 336 335 334 333 331 328 325
194 192 190 189 191 192 193 195 198 199 202 208 215 222 227 225 217 212 211 215 224 235 248 261 274 288 300 308 311 310 310 311 315 319 322 328 336 340 339 337 333 331 332 333 336 338 340 342 341 340 341 341 341 341 341 341 341 342 342 342 342 343 344 345 344 343 341 338 335 333 333 334 336 338 339 339 338 338 337 336 336 335 334 332 330
202 201 197 194 194 196 196 198 200 202 207 213 218 222 225 227 226 227 227 227 229 235 245 259 274 286 295 303 306 307 308 310 315 319 323 328 334 336 334 333 329 328 329 331 333 336 337 337 337 337 338 338 338 338 338 338 340 341 341 342 343 343 344 344 343 342 341 339 337 335 333 333 334 336 336 336 336 336 337 336 336 336 335 334 333
207 208 204 200 200 201 201 201 199 203 210 214 217 219 223 227 232 237 240 242 243 244 248 257 269 280 288 297 301 304 305 309 315 320 325 330 333 331 330 328 326 326 328 330 331 333 334 333 332 333 333 333 334 335 335 336 338 339 340 341 342 343 342 342 341 341 341 340 339 336 334 332 331 332 332 333 333 333 334 335 336 335 335 334 333
211 212 209 207 207 208 209 206 205 209 217 219 218 220 223 226 230 234 238 242 246 250 254 259 266 275 282 290 296 300 303 307 314 321 326 329 329 327 325 324 322 324 326 328 329 331 332 331 330 329 329 329 330 332 333 335 337 339 339 340 340 342 341 341 340 340 340 340 338 337 334 332 331 330 330 330 331 331 333 333 334 335 335 334 333
213 214 214 214 215 218 220 219 220 225 231 233 231 230 230 229 230 232 235 236 241 247 252 256 261 269 276 285 292 296 300 306 313 321 326 327 324 322 322 320 319 321 323 325 327 329 330 330 329 328 328 328 329 331 333 335 337 337 338 338 339 341 342 341 340 338 338 338 337 336 335 333 331 329 329 330 330 331 331 332 333 333 333 333 332
218 217 217 219 221 225 228 231 234 239 244 247 247 245 243 243 242 241 241 242 243 246 250 255 260 265 272 279 286 292 297 303 311 320 325 324 321 320 318 316 317 319 321 323 325 326 327 328 329 330 329 329 330 331 333 334 336 336 337 337 338 340 341 341 340 338 337 337 336 335 335 333 331 330 329 330 331 331 330 330 331 332 332 332 331
222 221 221 223 226 229 232 236 240 245 249 251 253 254 253 253 254 254 253 253 252 251 254 258 262 266 270 275 281 287 293 300 309 320 324 320 318 317 315 313 315 316 318 320 323 324 325 326 328 329 329 329 330 331 332 334 335 336 337 337 338 340 340 338 337 337 337 337 336 334 334 333 332 331 331 331 330 330 330 329 329 330 329 328 329
224 225 226 228 230 232 235 238 241 245 249 253 254 256 257 257 257 259 259 258 257 255 257 261 264 267 270 274 278 283 289 297 307 318 321 317 315 315 313 312 313 315 315 318 320 322 323 324 325 326 327 328 329 331 332 334 335 335 336 336 336 338 338 335 334 334 335 336 335 335 334 333 332 332 332 331 331 329 329 329 329 329 328 327 327
227 229 230 231 234 236 237 239 242 246 249 253 254 255 256 257 257 259 259 258 258 258 258 260 264 267 270 273 276 281 287 294 304 315 316 313 312 312 311 310 312 314 315 317 319 320 322 322 323 324 326 328 329 331 332 333 334 334 334 334 334 334 335 333 332 333 334 334 335 335 334 333 332 332 332 332 331 330 329 330 330 329 328 327 327
230 232 232 233 235 237 239 239 242 246 248 250 252 252 253 254 255 256 256 255 256 257 257 259 262 266 269 273 276 281 286 292 301 309 311 309 310 310 309 309 312 314 315 316 318 319 320 320 321 323 325 327 329 330 331 332 332 332 332 332 332 332 333 332 332 332 332 334 334 334 332 332 332 332 332 331 330 330 329 330 330 329 328 327 328
230 233 233 235 236 237 239 240 241 244 247 248 249 251 253 254 253 253 254 253 254 257 258 258 261 265 268 272 276 281 286 291 297 303 305 306 307 308 308 308 311 313 315 316 316 318 319 319 320 323 325 326 328 328 329 330 330 330 330 330 330 331 331 331 331 332 332 331 332 331 331 331 331 331 330 330 329 329 328 328 328 328 327 327 327
228 232 233 235 237 238 239 240 240 242 244 247 248 252 255 255 253 252 252 253 254 257 259 261 263 266 268 271 276 281 285 289 294 298 300 303 305 306 306 308 310 312 313 314 315 317 318 319 320 322 324 325 326 327 327 328 328 328 328 328 328 329 330 330 330 330 330 329 330 330 330 330 330 330 329 328 328 327 326 326 326 326 326 326 326
228 231 233 235 237 237 238 239 240 241 243 246 248 252 255 254 250 249 251 254 256 258 259 261 265 269 270 272 275 280 284 288 291 295 299 303 304 304 305 308 310 311 311 312 314 315 317 319 321 322 323 324 325 325 326 326 326 325 326 327 327 327 328 328 328 328 327 328 330 329 329 330 330 330 329 328 327 326 325 325 325 325 325 325 325
229 230 231 233 235 236 238 239 241 241 243 246 248 250 252 252 251 251 253 255 257 259 260 262 266 270 273 274 276 278 282 286 289 294 299 301 302 303 304 306 308 309 310 311 313 314 316 319 321 322 323 323 323 325 326 325 324 324 324 325 325 326 327 327 328 328 328 329 330 329 329 329 330 331 330 329 328 327 325 325 325 325 325 324 324
232 232 231 232 234 235 237 239 241 242 243 244 247 248 249 251 252 253 253 255 258 259 260 261 265 270 273 274 275 277 280 283 287 292 297 299 301 303 304 305 306 307 309 310 312 313 316 318 319 320 321 321 322 325 326 326 325 323 323 323 324 325 327 327 329 330 330 330 329 329 328 328 328 330 331 329 328 327 325 325 325 325 324 323 323
234 235 234 234 234 234 235 238 240 242 243 244 246 247 248 248 250 252 254 256 258 259 260 262 265 269 272 275 276 277 278 281 285 289 294 297 300 302 303 304 304 306 308 310 311 313 315 317 317 317 319 320 321 324 326 326 325 323 322 321 323 326 327 327 330 331 329 329 329 327 326 325 326 328 329 329 327 326 325 324 324 323 322 321 321
235 237 237 236 235 234 234 236 238 240 243 245 246 246 247 248 249 252 254 256 258 260 261 263 266 268 272 275 277 277 278 278 281 286 292 296 299 300 301 302 304 305 307 309 311 313 315 316 316 315 317 318 320 322 324 325 326 326 324 321 324 327 327 328 330 331 329 329 328 326 324 323 324 325 326 327 326 325 324 323 322 321 320 320 319
233 236 239 239 239 237 235 235 237 238 241 244 246 246 247 248 250 251 254 256 258 259 261 264 267 270 272 274 276 277 278 277 279 285 292 295 297 298 299 301 303 304 306 308 310 312 314 314 314 314 316 318 319 320 322 324 326 327 325 321 323 325 326 328 329 328 328 327 327 326 324 321 321 323 324 325 324 323 322 321 320 319 319 319 318
233 235 237 240 242 241 238 236 236 237 238 241 244 246 248 249 250 252 254 255 257 259 262 265 268 271 272 274 275 277 279 279 281 286 291 293 295 297 299 301 303 304 305 307 309 311 312 313 313 313 315 316 317 317 320 322 323 323 321 319 321 324 325 325 325 325 325 325 324 324 322 320 320 322 323 322 322 321 321 320 319 319 318 317 317
235 236 236 238 241 243 242 239 238 238 238 239 241 244 247 249 251 252 254 256 258 261 264 266 268 270 272 273 275 277 279 280 282 286 288 291 293 296 299 301 302 304 305 306 309 310 311 311 312 313 314 314 314 315 317 319 319 319 318 318 320 322 322 322 322 323 323 322 322 322 321 319 320 321 321 320 320 319 319 319 319 318 317 317 317
235 237 238 237 239 242 244 244 242 241 240 240 241 242 244 247 249 251 254 257 259 261 263 265 267 269 271 272 274 277 278 280 283 285 287 289 293 296 298 300 302 303 303 304 307 308 309 309 309 311 312 312 311 313 314 315 315 315 315 317 319 320 320 320 321 322 322 321 321 320 318 317 318 319 319 319 319 318 318 318 318 317 317 317 317
234 236 238 239 239 241 243 245 245 244 244 243 243 243 245 247 248 250 252 255 258 260 263 265 267 268 271 273 275 276 278 280 282 284 286 289 292 295 297 299 300 301 302 302 304 305 306 306 306 307 308 307 308 310 311 312 313 313 314 316 317 318 319 320 321 321 321 319 317 316 315 315 317 319 320 319 318 318 317 317 317 317 317 317 317
235 235 237 239 241 242 243 244 244 244 245 245 245 246 247 249 250 251 252 253 256 259 262 264 266 268 270 273 275 276 278 280 282 284 286 289 291 294 296 297 298 299 299 299 300 301 302 303 303 303 304 304 305 306 308 309 310 311 313 316 317 318 319 319 320 319 317 315 314 314 315 316 318 319 319 318 317 317 317 317 317 316 316 317 317
239 237 237 238 240 241 242 243 243 244 244 245 246 247 248 249 250 251 252 254 255 257 260 263 265 267 269 272 274 277 278 280 282 284 286 288 290 292 293 294 295 295 296 296 297 298 299 300 301 301 301 302 303 304 306 308 308 310 315 317 317 318 319 319 318 317 315 314 315 315 316 317 318 319 318 317 316 316 316 317 316 316 317 317 317
240 240 240 240 240 240 241 242 242 243 244 246 246 247 248 249 250 251 253 255 256 257 259 261 264 266 269 271 273 276 277 279 281 282 285 287 289 290 290 291 292 292 293 293 295 296 297 298 298 299 299 301 303 304 305 306 308 311 314 314 316 320 321 318 316 316 315 316 317 316 316 317 318 318 317 317 316 316 316 316 316 317 317 318 318
241 241 241 241 241 241 241 242 243 243 244 246 247 248 248 249 250 252 254 255 256 257 259 261 264 266 268 270 272 274 276 277 279 282 284 285 286 286 287 288 289 290 291 292 293 294 295 296 297 298 299 300 302 303 303 304 307 310 311 313 318 321 317 311 310 312 313 315 315 315 315 316 317 318 317 316 316 316 316 316 317 317 318 318 318
242 242 241 242 242 243 243 243 243 244 245 246 247 248 249 250 250 251 253 254 255 257 259 261 263 266 268 270 271 273 274 276 278 280 281 282 282 283 285 287 288 289 290 291 292 293 294 295 297 298 298 299 301 301 301 302 306 308 309 313 315 312 304 302 305 309 311 313 314 315 316 317 318 318 317 317 316 316 316 317 317 318 318 318 318
243 243 242 242 242 243 244 244 245 246 246 247 247 248 249 250 250 250 251 253 254 256 258 260 262 265 267 268 270 272 274 275 275 276 277 279 281 282 284 286 287 288 289 290 291 292 293 294 296 297 298 298 299 299 300 302 304 306 308 310 310 306 302 304 307 310 312 314 315 316 316 317 318 318 317 317 316 316 316 317 317 318 317 318 318
242 241 242 242 242 241 241 242 244 245 245 246 246 247 248 248 249 250 250 250 252 254 256 258 260 263 264 266 268 270 272 272 272 273 276 278 280 282 284 286 286 287 288 289 290 292 293 294 296 297 297 297 298 299 300 302 304 305 307 309 308 306 306 309 311 313 315 316 317 317 317 318 318 317 317 316 316 315 316 317 318 318 318 318 319
244 242 241 241 242 242 241 239 240 242 243 244 245 245 246 247 247 247 248 249 250 252 254 257 258 260 262 265 266 268 269 270 272 275 277 279 281 283 285 286 287 287 288 289 291 292 293 294 296 296 296 296 297 299 300 302 303 305 307 307 307 307 310 312 314 315 316 317 317 316 317 317 317 316 316 315 315 316 317 318 318 318 318 319 320
250 249 246 244 244 244 244 242 240 240 242 244 244 245 245 246 246 246 247 248 249 252 254 255 256 257 260 263 265 266 268 271 274 276 277 279 282 285 287 287 287 288 289 291 292 293 293 294 294 294 294 294 296 298 299 300 302 304 305 305 307 310 313 314 315 315 316 316 316 316 316 316 316 315 315 315 315 317 318 318 318 318 319 320 322
254 252 250 248 246 245 246 245 244 243 243 244 245 245 245 246 246 246 245 245 247 251 253 254 255 256 259 261 264 266 268 272 274 275 277 280 284 287 289 289 289 291 292 293 294 294 293 293 292 292 292 293 294 296 297 299 301 303 305 306 309 312 313 314 315 315 315 315 315 315 315 314 314 314 315 315 316 318 318 318 318 319 320 321 322
259 255 251 249 247 246 245 245 245 244 245 245 246 246 247 247 247 247 245 245 247 250 251 252 254 256 258 260 262 265 267 270 272 275 278 281 285 288 289 291 293 295 296 297 297 296 294 294 293 291 291 292 293 295 297 299 302 304 306 308 310 313 314 314 315 315 315 315 314 314 313 313 313 314 315 316 317 318 318 318 319 320 321 322 323
261 259 256 252 250 248 246 245 245 244 245 245 246 246 247 248 249 249 247 247 249 250 251 252 254 256 258 260 262 264 267 269 272 275 278 281 285 289 292 295 299 301 301 300 299 298 297 297 295 293 292 292 294 296 298 301 304 306 307 309 311 313 314 314 314 314 314 313 313 313 312 312 313 314 315 317 318 318 318 319 319 320 321 322 323
258 259 259 258 255 253 250 248 247 246 245 245 245 245 245 246 248 248 248 248 249 249 250 252 253 256 258 260 262 264 266 269 271 274 278 281 285 290 295 300 303 304 304 302 299 299 299 296 293 294 295 296 297 298 299 303 306 308 307 308 310 312 313 313 313 312 312 312 312 312 312 312 313 315 316 317 318 318 318 319 320 320 321 321 322
258 256 257 258 258 257 255 253 251 249 247 247 246 246 246 245 245 246 248 248 248 249 250 251 252 254 256 258 260 263 265 268 271 273 275 278 283 290 296 300 302 303 301 294 290 289 287 286 291 297 299 299 299 299 301 305 308 308 306 307 309 311 311 311 310 311 311 311 311 311 312 313 314 315 317 317 317 318 318 319 320 320 320 321 322
260 258 257 257 258 258 258 257 255 253 252 250 248 247 247 247 246 245 246 248 249 251 252 252 252 252 253 255 257 260 263 266 269 271 274 278 284 290 293 295 300 300 290 280 278 275 273 280 293 300 302 301 300 301 304 306 306 305 304 305 307 308 308 308 308 309 310 310 311 312 313 314 315 316 317 317 317 317 318 319 319 319 320 320 321
261 260 259 258 258 258 258 257 257 255 254 253 252 250 249 248 248 247 248 251 254 256 256 255 254 253 253 254 256 259 263 267 270 272 275 279 283 286 287 289 292 285 269 269 275 269 267 280 295 301 302 302 300 302 304 302 300 301 302 304 305 305 305 306 307 308 309 310 311 312 313 314 315 316 316 316 317 317 318 318 318 318 319 320 321
258 258 259 258 258 257 257 257 257 256 254 253 253 253 251 249 247 246 245 245 247 250 252 252 251 252 253 254 256 259 262 265 269 272 275 278 280 282 281 279 275 265 257 261 265 259 265 283 296 300 302 300 299 302 301 297 298 301 302 303 304 304 304 306 307 308 309 310 312 313 313 314 314 315 315 316 316 317 317 317 317 317 318 319 320
256 255 255 256 257 257 258 258 258 257 255 253 252 252 251 249 247 244 240 236 236 241 245 247 248 249 250 252 255 257 260 263 267 270 273 275 276 277 274 267 262 259 255 249 244 248 265 286 297 299 298 294 293 297 298 296 299 302 302 303 304 304 305 306 307 308 309 310 312 312 312 313 314 314 315 315 316 316 316 316 316 316 317 319 320
253 252 252 254 256 257 258 259 259 259 258 256 254 253 251 249 246 244 241 237 237 240 245 247 248 249 250 252 254 256 258 261 264 266 270 273 271 269 266 261 259 259 253 245 241 247 262 283 293 293 289 288 290 295 296 297 299 301 301 303 303 303 305 306 307 308 309 310 311 311 312 313 314 314 314 314 314 315 314 314 315 316 317 319 321
250 250 251 253 255 257 259 260 260 260 260 259 257 256 253 249 246 244 241 239 239 241 245 247 248 248 249 251 258 264 266 263 262 266 272 273 268 264 261 256 256 258 255 249 246 248 259 275 285 287 287 290 293 294 295 297 298 299 301 302 302 303 304 305 306 308 309 310 310 311 311 313 313 314 313 313 313 313 313 314 315 316 318 319 320
249 250 251 252 254 256 258 259 260 261 261 260 259 256 253 249 246 243 241 240 240 241 244 246 246 245 243 243 252 267 271 270 269 271 271 266 261 259 256 252 253 257 257 252 250 250 257 269 279 284 288 291 293 294 295 297 298 300 301 301 302 303 304 305 306 307 308 309 310 310 311 312 313 313 312 312 312 312 313 314 315 316 318 319 320
Height
10976 10978 10980 10981 10982 10983 10984 10984 10985 10986 10988 10989 10991 10992 10993 10994 10995 10996 10998 10998 10999 11000 11000 11000 11000 11000 11000 10999 10999 10999 10998 10997 10996 10995 10994 10994 10993 10992 10992 10992 10991 10991 10990 10989 10988 10986 10985 10983 10982 10980 10979 10977 10976 10975 10974 10973 10972 10971 10970 10969 10968 10967 10965 10964 10962 10960 10957 10955 10953 10951 10949 10947 10946 10944 10943 10941 10939 10936 10934 10932 10931 10929 10927 10925 10923
10977 10979 10980 10982 10982 10983 10984 10985 10986 10987 10988 10989 10991 10992 10993 10994 10995 10996 10997 10998 10999 10999 11000 11000 11000 10999 10999 10999 10999 10998 10997 10997 10996 10995 10994 10993 10992 10992 10992 10992 10991 10990 10989 10988 10987 10985 10984 10982 10981 10979 10978 10977 10976 10974 10973 10972 10971 10970 10969 10968 10967 10966 10965 10963 10960 10958 10956 10954 10952 10950 10948 10946 10944 10942 10941 10939 10938 10936 10934 10931 10929 10927 10925 10923 10922
10977 10979 10981 10982 10983 10983 10984 10985 10986 10987 10988 10989 10990 10991 10993 10993 10994 10995 10996 10997 10998 10999 10999 10999 10999 10999 10999 10999 10998 10998 10997 10996 10995 10994 10993 10993 10992 10992 10991 10991 10991 10990 10988 10987 10986 10984 10983 10982 10980 10979 10978 10977 10975 10974 10973 10972 10971 10970 10969 10968 10966 10965 10964 10962 10959 10957 10955 10953 10951 10949 10947 10945 10942 10940 10939 10937 10935 10933 10932 10930 10928 10925 10923 10921 10920
10978 10979 10981 10982 10983 10983 10984 10985 10986 10987 10988 10989 10990 10991 10992 10993 10993 10994 10995 10996 10997 10998 10998 10999 10999 10999 10998 10998 10998 10997 10996 10995 10994 10994 10993 10992 10992 10991 10991 10991 10990 10989 10988 10986 10985 10984 10982 10981 10980 10979 10977 10976 10975 10974 10973 10971 10971 10970 10969 10968 10966 10964 10962 10960 10958 10956 10954 10952 10950 10948 10946 10943 10941 10939 10937 10935 10934 10932 10929 10928 10926 10924 10922 10919 10917
10978 10979 10980 10981 10982 10983 10984 10985 10986 10987 10988 10989 10990 10991 10992 10992 10993 10994 10995 10995 10996 10997 10997 10998 10998 10998 10998 10998 10997 10996 10995 10995 10994 10993 10993 10992 10992 10992 10991 10991 10990 10989 10987 10986 10985 10984 10982 10981 10980 10979 10977 10976 10975 10974 10973 10971 10970 10969 10968 10967 10965 10963 10961 10959 10957 10955 10953 10951 10949 10946 10944 10942 10940 10937 10935 10933 10932 10931 10928 10925 10923 10922 10920 10918 10916
10978 10979 10980 10981 10982 10983 10984 10985 10986 10987 10988 10989 10990 10991 10992 10992 10993 10994 10995 10995 10996 10996 10997 10997 10997 10997 10997 10997 10997 10996 10995 10994 10993 10993 10992 10992 10992 10992 10992 10991 10990 10988 10987 10986 10984 10983 10982 10980 10979 10978 10977 10976 10975 10974 10973 10971 10969 10967 10966 10965 10964 10961 10959 10957 10955 10953 10951 10949 10947 10945 10943 10941 10939 10936 10934 10931 10929 10928 10926 10924 10922 10920 10918 10917 10915
10978 10979 10980 10981 10982 10983 10984 10985 10986 10987 10988 10989 10990 10991 10991 10992 10993 10994 10995 10996 10996 10996 10996 10997 10997 10997 10997 10997 10996 10995 10994 10993 10993 10992 10992 10992 10992 10992 10991 10990 10989 10987 10986 10985 10983 10982 10981 10980 10979 10978 10977 10976 10975 10974 10972 10971 10969 10967 10965 10964 10962 10960 10958 10955 10953 10951 10949 10947 10945 10944 10942 10940 10938 10936 10933 10930 10927 10924 10923 10921 10919 10917 10916 10914 10912
10978 10979 10980 10981 10982 10983 10984 10985 10986 10987 10988 10989 10990 10991 10991 10992 10992 10993 10994 10995 10996 10996 10997 10997 10996 10996 10996 10996 10995 10995 10994 10993 10992 10992 10992 10992 10992 10992 10991 10989 10988 10986 10985 10984 10983 10981 10980 10979 10978 10977 10976 10975 10974 10973 10971 10970 10968 10966 10964 10962 10960 10959 10956 10953 10951 10949 10947 10945 10943 10942 10940 10939 10937 10935 10932 10930 10926 10923 10920 10918 10916 10914 10913 10911 10909
10978 10979 10979 10980 10981 10982 10983 10984 10985 10986 10988 10989 10990 10990 10991 10992 10992 10993 10993 10994 10994 10995 10996 10996 10996 10996 10995 10995 10994 10993 10993 10992 10992 10992 10992 10991 10992 10991 10990 10989 10987 10985 10984 10983 10982 10981 10979 10978 10977 10976 10975 10974 10972 10971 10969 10968 10967 10965 10963 10960 10958 10956 10954 10952 10949 10947 10945 10943 10942 10940 10938 10937 10935 10933 10930 10928 10925 10922 10918 10916 10913 10911 10909 10908 10907
10978 10979 10979 10980 10981 10982 10983 10983 10985 10986 10987 10988 10989 10990 10991 10991 10992 10993 10993 10994 10994 10994 10995 10995 10995 10995 10994 10994 10993 10992 10991 10991 10991 10991 10991 10991 10991 10991 10989 10988 10986 10984 10983 10982 10981 10980 10978 10977 10976 10975 10974 10973 10971 10969 10968 10967 10965 10963 10961 10959 10956 10954 10952 10950 10948 10946 10944 10942 10940 10938 10936 10934 10932 10931 10928 10926 10923 10920 10917 10914 10911 10909 10906 10904 10902
10976 10978 10979 10979 10980 10981 10982 10983 10984 10985 10986 10987 10988 10989 10990 10990 10991 10992 10993 10993 10993 10993 10994 10994 10994 10994 10993 10992 10991 10990 10990 10990 10990 10990 10990 10991 10990 10989 10988 10986 10984 10983 10982 10981 10980 10979 10977 10976 10975 10974 10973 10972 10970 10969 10967 10965 10963 10961 10959 10957 10954 10952 10950 10948 10946 10945 10943 10940 10938 10936 10934 10932 10930 10928 10926 10924 10921 10918 10915 10911 10909 10906 10903 10900 10898
10974 10976 10977 10978 10979 10980 10981 10983 10983 10984 10985 10986 10987 10987 10988 10989 10990 10990 10991 10992 10992 10993 10993 10993 10992 10992 10991 10990 10990 10989 10988 10988 10989 10989 10990 10990 10989 10988 10987 10985 10983 10982 10981 10980 10979 10978 10976 10975 10973 10972 10972 10971 10969 10968 10966 10964 10962 10960 10957 10955 10953 10951 10949 10947 10945 10943 10941 10939 10937 10935 10933 10931 10928 10926 10924 10922 10919 10916 10912 10909 10906 10903 10900 10898 10895
10972 10974 10975 10976 10977 10979 10980 10981 10982 10983 10984 10985 10986 10986 10987 10987 10988 10988 10989 10990 10990 10991 10991 10991 10991 10990 10989 10988 10987 10987 10986 10987 10987 10988 10989 10989 10988 10987 10985 10984 10982 10981 10980 10979 10978 10976 10975 10973 10972 10970 10969 10968 10967 10966 10964 10962 10960 10957 10956 10954 10952 10950 10948 10946 10944 10942 10940 10937 10935 10933 10931 10928 10926 10924 10922 10920 10917 10914 10910 10907 10904 10901 10898 10895 10892
10970 10971 10972 10973 10975 10976 10978 10980 10981 10982 10983 10983 10984 10985 10985 10986 10986 10986 10987 10987 10988 10989 10989 10989 10989 10988 10987 10986 10985 10984 10984 10985 10986 10987 10987 10987 10986 10985 10984 10982 10981 10980 10979 10978 10977 10975 10973 10972 10970 10968 10967 10965 10964 10962 10961 10959 10957 10955 10953 10951 10950 10948 10946 10944 10942 10940 10938 10935 10932 10930 10929 10927 10924 10921 10919 10917 10914 10912 10909 10905 10902 10899 10896 10893 10890
10966 10967 10969 10970 10972 10974 10976 10977 10978 10979 10980 10981 10982 10983 10983 10984 10984 10985 10985 10985 10986 10987 10987 10987 10987 10986 10985 10983 10982 10982 10982 10983 10984 10985 10986 10986 10985 10984 10982 10980 10980 10979 10977 10976 10975 10974 10972 10971 10969 10967 10965 10964 10962 10960 10958 10956 10954 10952 10950 10948 10947 10945 10943 10942 10940 10937 10935 10932 10929 10927 10926 10924 10921 10919 10916 10913 10911 10908 10906 10903 10901 10898 10895 10892 10889
10962 10963 10964 10966 10969 10971 10973 10974 10975 10976 10977 10978 10979 10981 10981 10982 10982 10983 10983 10983 10983 10984 10985 10985 10984 10983 10982 10981 10980 10980 10980 10981 10982 10983 10984 10983 10983 10982 10980 10978 10978 10977 10976 10975 10973 10972 10971 10969 10968 10966 10964 10962 10960 10958 10956 10954 10951 10950 10948 10946 10944 10942 10940 10938 10936 10933 10931 10929 10926 10924 10922 10920 10917 10914 10912 10909 10907 10904 10901 10899 10897 10894 10892 10889 10886
10957 10958 10960 10963 10966 10968 10970 10971 10972 10973 10974 10975 10977 10978 10979 10979 10980 10980 10981 10981 10981 10982 10982 10982 10982 10981 10980 10978 10977 10977 10978 10978 10980 10981 10981 10981 10980 10980 10978 10976 10976 10975 10974 10972 10971 10970 10969 10968 10966 10965 10963 10960 10958 10955 10953 10951 10949 10947 10946 10944 10942 10939 10937 10934 10932 10930 10927 10925 10922 10919 10917 10915 10912 10909 10907 10904 10901 10899 10896 10893 10891 10889 10886 10883 10880
10953 10954 10956 10959 10962 10965 10966 10968 10969 10970 10971 10972 10974 10975 10976 10976 10977 10977 10978 10978 10978 10979 10979 10979 10979 10978 10977 10976 10975 10975 10976 10976 10977 10978 10979 10978 10978 10977 10975 10974 10974 10973 10971 10970 10969 10968 10967 10966 10964 10963 10961 10959 10956 10953 10951 10949 10947 10945 10943 10941 10939 10937 10934 10931 10928 10926 10923 10921 10918 10915 10913 10911 10908 10905 10902 10899 10896 10893 10890 10888 10886 10883 10881 10878 10876
10950 10950 10953 10956 10958 10961 10962 10964 10966 10967 10968 10969 10970 10971 10972 10973 10974 10974 10975 10975 10976 10976 10976 10977 10976 10975 10974 10973 10972 10973 10974 10974 10975 10976 10976 10976 10975 10974 10973 10972 10971 10970 10969 10968 10967 10966 10965 10963 10962 10961 10959 10957 10955 10952 10949 10946 10944 10942 10940 10938 10936 10933 10931 10928 10925 10922 10920 10917 10915 10912 10909 10907 10904 10902 10899 10896 10893 10889 10886 10884 10881 10879 10876 10874 10871
10946 10947 10949 10951 10953 10956 10958 10959 10962 10963 10964 10966 10966 10967 10968 10970 10971 10972 10972 10973 10973 10973 10974 10974 10973 10972 10971 10970 10970 10971 10972 10972 10973 10973 10973 10973 10973 10971 10970 10969 10968 10968 10966 10965 10965 10964 10962 10961 10960 10958 10957 10955 10952 10950 10947 10944 10941 10939 10936 10934 10932 10929 10927 10924 10921 10919 10916 10913 10911 10908 10905 10903 10901 10899 10896 10893 10890 10887 10884 10881 10878 10875 10872 10870 10867
10942 10943 10945 10946 10949 10952 10953 10955 10957 10959 10961 10961 10962 10964 10965 10966 10968 10968 10969 10969 10970 10970 10970 10970 10970 10969 10968 10967 10968 10969 10970 10970 10970 10970 10970 10970 10970 10968 10967 10966 10965 10964 10963 10963 10962 10961 10960 10958 10957 10955 10954 10952 10949 10947 10945 10942 10939 10936 10933 10930 10928 10925 10923 10921 10918 10915 10912 10909 10906 10903 10900 10898 10896 10895 10893 10890 10887 10883 10880 10877 10874 10872 10868 10865 10862
10937 10939 10940 10942 10944 10947 10949 10951 10953 10955 10956 10957 10958 10960 10961 10962 10964 10965 10965 10965 10966 10966 10966 10966 10966 10965 10965 10964 10965 10966 10967 10967 10967 10967 10967 10967 10967 10966 10965 10964 10962 10961 10960 10959 10958 10957 10956 10955 10954 10952 10950 10948 10946 10944 10942 10939 10936 10932 10929 10926 10924 10921 10919 10917 10914 10911 10908 10905 10902 10898 10895 10893 10890 10889 10887 10884 10881 10877 10874 10870 10867 10865 10862 10859 10856
10932 10934 10936 10938 10940 10942 10945 10947 10948 10950 10951 10953 10954 10956 10957 10958 10960 10961 10961 10962 10962 10962 10962 10962 10962 10961 10961 10961 10962 10963 10964 10964 10964 10964 10964 10964 10963 10963 10962 10961 10959 10958 10956 10955 10954 10953 10952 10951 10949 10947 10945 10943 10941 10940 10938 10935 10931 10928 10924 10922 10919 10917 10914 10912 10909 10906 10904 10901 10898 10894 10891 10888 10885 10883 10881 10878 10875 10871 10868 10864 10861 10858 10855 10852 10849
10927 10929 10931 10933 10935 10938 10941 10943 10944 10945 10947 10949 10950 10952 10953 10955 10955 10956 10957 10958 10959 10959 10958 10957 10957 10957 10956 10957 10959 10960 10960 10961 10961 10961 10961 10960 10960 10959 10958 10957 10956 10954 10953 10951 10950 10948 10948 10946 10944 10942 10940 10937 10936 10934 10933 10930 10926 10922 10919 10916 10914 10911 10908 10906 10903 10900 10898 10896 10893 10890 10886 10883 10880 10877 10875 10872 10869 10866 10862 10859 10856 10853 10850 10847 10843
10922 10923 10924 10927 10930 10934 10937 10938 10939 10941 10943 10944 10946 10948 10949 10950 10951 10952 10953 10955 10955 10955 10953 10953 10953 10952 10952 10953 10955 10956 10957 10957 10957 10958 10957 10956 10956 10955 10955 10954 10952 10951 10949 10948 10946 10945 10944 10942 10940 10937 10934 10931 10929 10928 10927 10925 10921 10917 10914 10911 10908 10904 10901 10898 10895 10893 10891 10889 10887 10884 10880 10877 10874 10871 10869 10866 10863 10860 10857 10853 10850 10847 10845 10842 10839
10917 10917 10918 10920 10924 10928 10931 10933 10935 10937 10939 10940 10941 10943 10945 10946 10947 10948 10949 10950 10950 10950 10949 10949 10949 10948 10948 10949 10951 10952 10953 10953 10954 10954 10954 10953 10952 10952 10951 10950 10948 10947 10945 10944 10942 10941 10940 10938 10935 10933 10930 10927 10924 10922 10921 10919 10917 10913 10910 10907 10903 10898 10895 10892 10889 10887 10885 10882 10880 10877 10874 10871 10868 10865 10863 10860 10857 10854 10851 10848 10845 10841 10838 10835 10832
10912 10912 10914 10916 10916 10919 10923 10928 10931 10933 10935 10936 10937 10939 10940 10941 10942 10944 10945 10945 10946 10946 10945 10945 10945 10944 10944 10945 10947 10948 10949 10949 10950 10950 10950 10950 10949 10948 10947 10946 10944 10942 10940 10939 10938 10937 10935 10933 10930 10928 10925 10922 10919 10916 10915 10914 10911 10908 10905 10902 10899 10894 10889 10886 10884 10881 10879 10877 10874 10872 10869 10866 10863 10861 10858 10854 10851 10848 10845 10842 10838 10835 10831 10828 10824
10907 10907 10909 10911 10910 10910 10914 10921 10925 10927 10929 10931 10933 10935 10935 10936 10937 10939 10940 10940 10941 10942 10941 10941 10941 10940 10939 10941 10943 10944 10945 10945 10946 10946 10946 10946 10945 10944 10943 10942 10939 10937 10935 10933 10931 10930 10928 10926 10923 10922 10920 10916 10913 10910 10909 10908 10906 10903 10899 10897 10895 10891 10886 10882 10879 10876 10874 10872 10869 10867 10864 10861 10859 10856 10853 10849 10845 10842 10838 10835 10831 10827 10824 10820 10816
10903 10903 10903 10905 10906 10905 10907 10913 10918 10921 10923 10926 10928 10930 10930 10931 10932 10934 10935 10936 10937 10937 10936 10936 10937 10936 10934 10936 10939 10940 10940 10940 10942 10942 10941 10941 10941 10940 10939 10937 10935 10932 10929 10927 10925 10923 10921 10919 10916 10915 10913 10910 10907 10905 10904 10903 10901 10898 10894 10892 10890 10887 10882 10878 10873 10870 10868 10866 10864 10862 10859 10857 10854 10851 10847 10843 10839 10835 10831 10828 10824 10820 10816 10811 10807
10897 10898 10898 10899 10901 10901 10902 10907 10911 10914 10916 10919 10922 10924 10924 10926 10928 10929 10930 10931 10932 10932 10931 10931 10933 10931 10930 10932 10934 10935 10935 10936 10937 10937 10936 10936 10935 10934 10933 10931 10929 10926 10923 10921 10919 10917 10915 10912 10910 10908 10906 10903 10900 10899 10898 10897 10895 10892 10889 10887 10885 10882 10879 10875 10869 10865 10863 10861 10859 10856 10853 10850 10847 10844 10839 10835 10832 10828 10824 10820 10816 10812 10808 10803 10799
10889 10891 10892 10892 10894 10896 10898 10901 10904 10907 10909 10911 10914 10917 10918 10920 10922 10924 10925 10925 10926 10928 10928 10927 10927 10927 10927 10927 10928 10929 10929 10930 10930 10931 10931 10930 10929 10928 10926 10924 10922 10920 10917 10914 10912 10910 10908 10906 10903 10901 10899 10896 10895 10894 10893 10891 10889 10887 10885 10883 10879 10877 10875 10871 10866 10863 10860 10857 10854 10851 10847 10844 10840 10837 10833 10829 10825 10821 10817 10812 10808 10804 10800 10795 10791
10879 10882 10883 10885 10887 10889 10893 10895 10897 10899 10902 10904 10907 10910 10912 10914 10916 10917 10918 10920 10922 10923 10924 10922 10921 10922 10922 10921 10921 10922 10923 10923 10924 10924 10923 10923 10922 10920 10918 10916 10914 10913 10910 10907 10904 10902 10901 10899 10896 10893 10891 10890 10889 10888 10888 10885 10882 10881 10883 10881 10876 10873 10870 10865 10860 10858 10855 10852 10849 10845 10841 10837 10834 10831 10826 10822 10817 10813 10808 10804 10799 10795 10790 10786 10782
10868 10871 10874 10877 10879 10882 10886 10888 10890 10894 10896 10898 10900 10903 10905 10907 10909 10910 10913 10915 10916 10917 10918 10917 10916 10916 10916 10915 10915 10915 10916 10916 10916 10916 10916 10915 10914 10912 10910 10908 10906 10904 10902 10900 10898 10896 10894 10891 10889 10886 10884 10883 10883 10883 10882 10879 10876 10878 10883 10882 10876 10870 10864 10858 10854 10851 10847 10845 10842 10839 10835 10832 10828 10824 10819 10814 10809 10805 10800 10795 10790 10785 10781 10776 10772
10859 10862 10865 10868 10870 10874 10878 10881 10885 10889 10891 10892 10894 10897 10899 10900 10903 10905 10907 10909 10910 10911 10912 10912 10911 10910 10909 10908 10908 10908 10908 10908 10908 10908 10908 10907 10905 10903 10902 10900 10898 10896 10894 10893 10891 10889 10887 10884 10882 10879 10877 10876 10876 10876 10876 10873 10871 10874 10879 10880 10877 10870 10860 10852 10849 10846 10842 10839 10837 10834 10830 10825 10821 10816 10811 10806 10801 10796 10791 10786 10781 10776 10771 10766 10762
10850 10853 10856 10859 10862 10866 10870 10874 10879 10883 10885 10886 10889 10891 10893 10895 10897 10899 10901 10903 10903 10904 10906 10906 10905 10903 10902 10901 10901 10900 10900 10900 10900 10900 10899 10898 10896 10895 10894 10893 10892 10889 10887 10886 10885 10883 10880 10878 10876 10873 10871 10869 10868 10869 10868 10866 10865 10866 10870 10875 10876 10870 10859 10851 10847 10843 10839 10835 10832 10828 10823 10818 10813 10808 10804 10799 10794 10789 10783 10778 10773 10767 10762 10758 10754
10840 10842 10846 10850 10854 10858 10863 10868 10873 10875 10878 10880 10882 10885 10887 10889 10891 10894 10896 10896 10897 10898 10899 10898 10898 10896 10894 10893 10893 10892 10891 10891 10891 10891 10890 10889 10888 10886 10887 10888 10886 10883 10880 10879 10878 10876 10873 10871 10869 10867 10865 10863 10861 10861 10860 10859 10859 10858 10860 10866 10868 10862 10853 10848 10843 10837 10832 10827 10823 10819 10814 10809 10804 10800 10796 10791 10786 10781 10775 10770 10765 10759 10754 10749 10745
10830 10832 10835 10838 10841 10847 10853 10859 10862 10864 10868 10871 10873 10876 10879 10881 10884 10887 10888 10889 10890 10891 10890 10890 10890 10889 10886 10884 10884 10883 10882 10880 10880 10882 10883 10882 10881 10880 10881 10882 10880 10876 10874 10872 10872 10870 10867 10864 10862 10860 10857 10855 10853 10853 10853 10852 10851 10850 10850 10854 10854 10849 10843 10838 10833 10827 10822 10817 10813 10809 10804 10800 10796 10792 10788 10784 10779 10773 10768 10762 10757 10751 10746 10741 10736
10822 10824 10827 10829 10831 10834 10840 10847 10849 10851 10855 10860 10862 10865 10869 10872 10875 10878 10880 10882 10883 10883 10882 10882 10882 10880 10877 10875 10875 10873 10871 10871 10873 10875 10876 10875 10875 10875 10876 10876 10873 10870 10868 10867 10866 10864 10861 10859 10856 10853 10849 10847 10845 10846 10845 10844 10843 10842 10842 10842 10841 10836 10831 10826 10820 10816 10812 10808 10804 10800 10795 10791 10788 10784 10780 10776 10771 10765 10759 10754 10748 10742 10736 10731 10726
10816 10818 10822 10825 10827 10827 10829 10835 10840 10843 10846 10848 10850 10854 10858 10861 10865 10868 10872 10875 10877 10876 10874 10873 10872 10870 10869 10868 10865 10864 10864 10865 10867 10868 10868 10868 10869 10870 10870 10869 10867 10865 10863 10862 10861 10858 10855 10853 10850 10845 10842 10840 10838 10838 10837 10835 10834 10834 10832 10831 10828 10824 10819 10815 10811 10807 10804 10800 10797 10793 10788 10784 10780 10776 10772 10768 10763 10757 10752 10746 10740 10734 10728 10723 10717
10806 10810 10814 10817 10819 10820 10821 10826 10831 10835 10836 10837 10839 10843 10847 10851 10855 10860 10866 10870 10870 10867 10864 10862 10862 10862 10863 10861 10858 10857 10859 10860 10860 10860 10860 10862 10864 10864 10863 10861 10859 10859 10858 10856 10854 10850 10847 10844 10841 10838 10834 10833 10831 10830 10829 10828 10827 10826 10823 10820 10818 10814 10811 10807 10803 10800 10797 10793 10789 10785 10781 10777 10772 10768 10764 10760 10755 10750 10744 10738 10732 10726 10720 10714 10708
10792 10798 10803 10806 10807 10810 10813 10815 10819 10824 10826 10828 10831 10835 10839 10843 10846 10853 10860 10862 10859 10856 10854 10854 10855 10855 10855 10854 10852 10853 10855 10854 10853 10853 10855 10857 10858 10857 10854 10853 10853 10853 10851 10848 10845 10841 10837 10835 10832 10829 10827 10826 10825 10823 10821 10821 10820 10818 10815 10812 10809 10806 10803 10800 10796 10793 10790 10786 10782 10778 10774 10769 10765 10760 10756 10752 10747 10742 10736 10730 10724 10717 10711 10706 10700
10782 10786 10790 10794 10797 10800 10804 10806 10809 10813 10816 10817 10821 10825 10829 10832 10837 10844 10850 10850 10848 10847 10847 10847 10847 10847 10847 10847 10847 10848 10849 10848 10847 10848 10850 10851 10851 10849 10847 10846 10846 10846 10843 10840 10835 10830 10828 10826 10825 10822 10820 10819 10818 10816 10814 10814 10813 10810 10806 10803 10800 10798 10795 10792 10789 10785 10782 10779 10775 10772 10767 10762 10758 10753 10748 10744 10739 10734 10728 10722 10716 10710 10704 10698 10692
10777 10778 10779 10784 10787 10791 10795 10798 10801 10804 10806 10806 10808 10812 10816 10821 10826 10831 10836 10837 10837 10837 10838 10839 10840 10840 10840 10840 10841 10843 10843 10842 10842 10843 10845 10845 10843 10842 10841 10841 10841 10840 10838 10833 10828 10825 10824 10822 10820 10817 10814 10812 10811 10809 10806 10805 10804 10801 10798 10795 10792 10790 10787 10784 10781 10778 10775 10772 10768 10764 10760 10756 10751 10746 10741 10736 10731 10726 10720 10714 10708 10702 10696 10690 10683
10770 10772 10772 10775 10777 10780 10784 10788 10791 10794 10796 10797 10799 10801 10805 10810 10816 10820 10821 10823 10825 10827 10828 10831 10833 10833 10832 10833 10834 10836 10836 10836 10836 10838 10839 10838 10836 10835 10836 10837 10837 10837 10835 10832 10830 10830 10828 10821 10814 10811 10808 10805 10804 10802 10799 10797 10795 10792 10790 10787 10785 10783 10780 10777 10773 10770 10767 10764 10760 10756 10752 10748 10744 10740 10735 10730 10724 10719 10713 10708 10701 10695 10688 10681 10674
10761 10763 10765 10767 10768 10770 10773 10777 10780 10784 10786 10788 10790 10793 10795 10800 10806 10809 10810 10812 10817 10820 10822 10824 10825 10824 10824 10825 10827 10828 10829 10829 10829 10830 10832 10831 10829 10829 10830 10831 10833 10834 10833 10830 10829 10830 10827 10816 10807 10804 10801 10798 10796 10794 10791 10789 10787 10785 10783 10781 10779 10777 10773 10769 10765 10762 10759 10756 10752 10748 10744 10741 10737 10733 10728 10723 10718 10712 10707 10701 10694 10687 10680 10673 10666
10752 10754 10756 10759 10760 10762 10764 10766 10769 10773 10776 10778 10780 10783 10788 10792 10796 10800 10805 10812 10818 10820 10818 10817 10817 10817 10817 10819 10822 10823 10824 10822 10821 10823 10825 10825 10823 10823 10825 10826 10828 10830 10828 10824 10823 10825 10821 10810 10801 10797 10793 10790 10788 10786 10785 10783 10781 10779 10777 10775 10773 10770 10766 10761 10757 10754 10752 10748 10744 10740 10737 10733 10730 10725 10721 10715 10710 10705 10700 10694 10687 10679 10672 10665 10658
10746 10746 10748 10749 10751 10753 10755 10757 10760 10764 10767 10770 10771 10773 10778 10782 10785 10790 10797 10803 10807 10807 10803 10802 10804 10807 10810 10814 10818 10819 10820 10818 10816 10818 10820 10818 10814 10815 10820 10822 10822 10822 10819 10816 10818 10820 10813 10802 10794 10790 10786 10783 10782 10781 10779 10777 10775 10773 10771 10769 10767 10763 10758 10754 10751 10748 10744 10741 10737 10733 10729 10726 10722 10717 10713 10707 10702 10698 10693 10687 10680 10673 10665 10658 10650
10739 10740 10740 10741 10743 10745 10747 10749 10752 10755 10758 10761 10763 10764 10767 10770 10773 10778 10782 10784 10785 10784 10784 10786 10790 10795 10802 10808 10812 10814 10816 10815 10813 10813 10815 10812 10807 10806 10810 10812 10811 10812 10812 10811 10811 10809 10801 10792 10787 10784 10780 10778 10777 10776 10774 10771 10769 10766 10764 10761 10759 10756 10752 10748 10744 10741 10738 10734 10731 10727 10723 10719 10715 10710 10705 10700 10696 10692 10687 10681 10674 10666 10659 10651 10643
10731 10732 10733 10734 10735 10737 10740 10742 10744 10746 10749 10751 10753 10755 10757 10759 10761 10764 10769 10772 10773 10773 10774 10778 10783 10789 10797 10803 10807 10809 10812 10813 10811 10808 10807 10807 10803 10800 10801 10803 10803 10804 10805 10804 10802 10797 10790 10785 10782 10778 10775 10773 10773 10771 10768 10766 10764 10761 10757 10755 10752 10749 10745 10742 10739 10735 10732 10728 10725 10721 10717 10713 10708 10703 10698 10693 10689 10685 10681 10674 10667 10660 10652 10644 10636
10723 10724 10726 10728 10729 10731 10733 10735 10736 10738 10740 10741 10743 10745 10746 10748 10749 10752 10755 10759 10763 10764 10766 10770 10777 10785 10793 10801 10807 10811 10810 10807 10807 10805 10802 10800 10797 10795 10796 10797 10797 10796 10796 10795 10793 10789 10785 10782 10778 10772 10769 10768 10768 10765 10763 10760 10758 10755 10752 10749 10746 10742 10739 10736 10733 10730 10726 10722 10719 10715 10711 10706 10701 10697 10692 10687 10683 10679 10674 10668 10661 10653 10645 10637 10629
10716 10717 10719 10721 10723 10724 10726 10727 10728 10730 10731 10732 10734 10735 10735 10736 10738 10740 10743 10746 10751 10754 10757 10762 10770 10778 10785 10797 10812 10820 10813 10802 10801 10805 10803 10795 10790 10789 10789 10790 10790 10790 10789 10787 10784 10781 10778 10776 10772 10767 10764 10763 10761 10760 10758 10754 10751 10749 10746 10743 10740 10736 10733 10730 10727 10723 10719 10716 10712 10708 10704 10700 10695 10690 10685 10681 10677 10672 10667 10660 10653 10646 10638 10630 10621